This is the latest recevied weather packets stored in our database for station/object SQ7IQO. If no packets are shown the sender has not sent any weather packets the latest 10 day(s).
| Time | Temp. | Humidity | Pressure | Rain* | Wind** | Luminosity | Snow |
|---|---|---|---|---|---|---|---|
| 1787922340 | 27.78° C | 35% | 1018.3 hPa | 0 mm | 0 m/s | - | - |
| 1787922280 | 27.22° C | 36% | 1018.3 hPa | 0 mm | 0 m/s | - | - |
| 1787922220 | 26.67° C | 38% | 1018.3 hPa | 0 mm | 0 m/s | - | - |
| 1787922160 | 26.11° C | 39% | 1018.3 hPa | 0 mm | 0 m/s | - | - |
| 1787922100 | 25.56° C | 40% | 1018.3 hPa | 0 mm | 0 m/s | - | - |
| 1787922040 | 25.56° C | 39% | 1018.2 hPa | 0 mm | 0.89 m/s, ° | - | - |
| 1787921980 | 25° C | 40% | 1018.2 hPa | 0 mm | 0 m/s | - | - |
| 1787921920 | 24.44° C | 40% | 1018.2 hPa | 0 mm | 0 m/s | - | - |
| 1787921860 | 24.44° C | 41% | 1018.2 hPa | 0 mm | 0.89 m/s, ° | - | - |
| 1787921800 | 24.44° C | 42% | 1018.2 hPa | 0 mm | 0 m/s | - | - |
| 1787921740 | 23.89° C | 42% | 1018.2 hPa | 0 mm | 0 m/s | - | - |
| 1787921680 | 23.89° C | 41% | 1018.2 hPa | 0 mm | 0.89 m/s, ° | - | - |
| 1787921620 | 23.89° C | 42% | 1018.3 hPa | 0 mm | 0.45 m/s, ° | - | - |
| 1787921560 | 23.89° C | 43% | 1018.3 hPa | 0 mm | 0.45 m/s, ° | - | - |
| 1787921500 | 23.89° C | 41% | 1018.2 hPa | 0 mm | 0 m/s | - | - |
| 1787921440 | 23.89° C | 41% | 1018.2 hPa | 0 mm | 0.45 m/s, ° | - | - |
| 1787921380 | 23.89° C | 42% | 1018.2 hPa | 0 mm | 0.45 m/s, ° | - | - |
| 1787921320 | 23.89° C | 42% | 1018.2 hPa | 0 mm | 0.89 m/s, ° | - | - |
| 1787921260 | 23.89° C | 42% | 1018.1 hPa | 0 mm | 0 m/s | - | - |
| 1787921200 | 23.89° C | 41% | 1018.2 hPa | 0 mm | 0.45 m/s, ° | - | - |
| 1787921140 | 23.89° C | 42% | 1018.2 hPa | 0 mm | 0.45 m/s, ° | - | - |
| 1787921080 | 24.44° C | 42% | 1018.2 hPa | 0 mm | 0 m/s | - | - |
| 1787921020 | 24.44° C | 41% | 1018.3 hPa | 0 mm | 0.45 m/s, ° | - | - |
| 1787920960 | 24.44° C | 40% | 1018.3 hPa | 0 mm | 0.45 m/s, ° | - | - |
| 1787920900 | 25° C | 40% | 1018.3 hPa | 0 mm | 0.89 m/s, ° | - | - |
* Rain latest hour (hover to see other rain measurements)
** Current wind speed in m/s (hover to see current wind gust speed)